Location: Caltech
(34.1382°N, 118.1253°W)
Time: 09:41:59
(UTC-07:00)

Hamsat - Visible Passes

Search period start: 02 September 2014 00:00
Search period end: 12 September 2014 00:00
Orbit: 595 x 627 km, 97.6° (Epoch: 01 September)

Date Brightness Start Highest point End Pass type
(mag) Time Alt. Az. Time Alt. Az. Time Alt. Az.
04 Sep ? 05:34:53 10° E 05:35:22 10° E 05:35:51 10° E visible
05 Sep ? 05:47:28 10° NE 05:50:05 16° E 05:52:40 10° SE visible
06 Sep ? 06:01:18 10° NE 06:04:45 23° E 06:08:10 10° SSE visible
11 Sep ? 05:39:42 10° ENE 05:41:32 12° E 05:43:21 10° ESE visible
